This demonstration page uses our WeatherBlox Daily Observations layout. Learn more.

36.17497, -115.13722

Hourly Observations for July 6, 2018

Temp ( °F °C ) Dew Point ( °F °C ) Humidity (%) Winds ( mph kmh ) Pressure ( in mb ) Visibility ( mi km ) Precip ( " mm )
12:53 am 00:53 Clear 90 32.2 17 -8.3 7 7 NW 12 19 29.97 1015 10 16.09344 0 0
1:53 am 01:53 Clear 89 31.7 26 -3.3 10 10 Calm 29.97 1015 10 16.09344 0 0
2:53 am 02:53 Clear 88 31.1 18 -7.8 7 7 N 6 9 29.97 1015 10 16.09344 0 0
3:53 am 03:53 Clear 84 28.9 27 -2.8 12 12 WNW 7 11 29.97 1015 10 16.09344 0 0
4:53 am 04:53 Clear 82 27.8 26 -3.3 13 13 NW 9 15 30 1016 10 16.09344 0 0
5:53 am 05:53 Sunny 82 27.8 24 -4.4 12 12 NW 3 6 30 1016 10 16.09344 0 0
6:53 am 06:53 Sunny 87 30.6 25 -3.9 10 10 NW 5 7 30.03 1017 10 16.09344 0 0
7:53 am 07:53 Sunny 91 32.8 18 -7.8 7 7 N 7 11 30.06 1018 10 16.09344 0 0
8:53 am 08:53 Sunny 95 35 18 -7.8 6 6 Calm 30.06 1018 10 16.09344 0 0
9:53 am 09:53 Sunny 99 37.2 23 -5 6 6 Calm 30.03 1017 10 16.09344 0 0
10:53 am 10:53 Sunny 101 38.3 24 -4.4 6 6 N 6 9 30.03 1017 10 16.09344 0 0
11:53 am 11:53 Sunny 104 40 24 -4.4 6 6 SE 10 17 30 1016 10 16.09344 0 0
12:53 pm 12:53 Sunny 105 40.6 23 -5 5 5 SE 10 17 29.97 1015 10 16.09344 0 0
1:53 pm 13:53 Sunny 108 42.2 25 -3.9 5 5 SE 10 17 29.94 1014 10 16.09344 0 0
2:53 pm 14:53 Sunny 108 42.2 28 -2.2 6 6 N 6 9 29.91 1013 10 16.09344 0 0
3:53 pm 15:53 Sunny 111 43.9 30 -1.1 6 6 S 9 15 29.88 1012 10 16.09344 0 0
4:53 pm 16:53 Sunny 110 43.3 31 -0.6 6 6 SSE 10 17 29.85 1011 10 16.09344 0 0
5:53 pm 17:53 Sunny 110 43.3 33 0.6 7 7 S 9 15 29.83 1010 10 16.09344 0 0
6:53 pm 18:53 Sunny 109 42.8 36 2.2 8 8 SSE 13 20 29.83 1010 10 16.09344 0 0
7:53 pm 19:53 Sunny 107 41.7 38 3.3 9 9 ESE 9 15 29.83 1010 10 16.09344 0 0
8:53 pm 20:53 Clear 105 40.6 42 5.6 12 12 SSE 15 24 29.85 1011 10 16.09344 0 0
9:53 pm 21:53 Clear 102 38.9 47 8.3 15 15 SSE 8 13 29.85 1011 10 16.09344 0 0
10:53 pm 22:53 Clear 99 37.2 50 10 19 19 SSE 14 22 29.88 1012 10 16.09344 0 0
11:53 pm 23:53 Clear 98 36.7 47 8.3 17 17 S 10 17 29.85 1011 10 16.09344 0 0

Powered by AerisWeather